Date,TemperatureHighF,TemperatureAvgF,TemperatureLowF,DewpointHighF,DewpointAvgF,DewpointLowF,HumidityHigh,HumidityAvg,HumidityLow,PressureMaxIn,PressureMinIn,WindSpeedMaxMPH,WindSpeedAvgMPH,GustSpeedMaxMPH,PrecipitationSumIn
2013-5-1,84.5,73.5,60.8,61.1,58.0,54.8,86,61,37,30.12,29.94,13,3,16,0.00
2013-5-2,67.5,52.9,41.8,58.3,46.8,39.7,93,80,67,30.18,30.10,15,6,21,0.00
2013-5-3,49.5,42.9,41.7,47.0,41.7,39.8,97,96,91,30.13,30.05,7,3,11,0.00
2013-5-4,73.3,65.2,55.5,54.7,48.6,43.1,97,56,35,30.02,29.96,6,4,17,0.00
2013-5-5,75.2,62.8,49.3,52.3,47.7,43.4,80,60,38,30.02,29.96,5,2,15,0.00
2013-5-6,76.9,62.0,49.2,52.9,46.1,34.8,94,62,23,30.01,29.92,9,2,17,0.00
2013-5-7,74.8,59.8,43.6,56.2,48.6,42.5,97,69,45,30.03,29.97,13,3,17,0.00
2013-5-8,74.6,62.8,50.4,58.5,51.4,46.4,94,69,38,30.03,29.95,14,2,18,0.00
2013-5-9,80.3,62.0,48.1,59.5,53.4,46.9,97,78,39,29.97,29.84,15,1,25,0.26
2013-5-10,61.2,50.4,41.7,60.7,49.8,41.4,100,98,92,29.94,29.74,16,5,19,0.17
2013-5-11,57.2,45.0,36.5,52.5,42.2,35.0,100,90,69,30.01,29.84,24,5,37,0.00
2013-5-12,48.0,42.0,34.7,36.6,33.0,30.8,96,71,53,30.14,30.01,18,7,25,0.00
2013-5-13,58.9,46.4,30.9,37.9,32.3,25.4,98,63,32,30.21,30.08,14,2,18,0.00
2013-5-14,82.4,67.0,51.1,62.0,48.2,29.5,67,51,42,30.08,29.66,15,4,25,0.00
2013-5-15,77.7,73.6,56.3,62.8,55.2,48.7,89,54,40,29.80,29.60,20,6,26,0.00
2013-5-16,80.8,65.1,49.4,55.5,50.0,45.0,100,64,29,29.96,29.78,12,2,15,0.00
2013-5-17,82.0,66.9,54.2,62.5,53.1,45.3,87,63,41,30.05,29.94,9,2,22,0.00
2013-5-18,81.9,68.3,58.3,65.3,55.2,43.0,95,64,51,30.07,29.94,8,2,13,0.00
2013-5-19,88.4,74.5,58.7,66.9,62.1,54.3,95,67,45,29.97,29.74,9,2,15,0.00
2013-5-20,88.3,78.7,70.5,72.3,67.5,62.2,92,70,42,29.81,29.68,14,4,20,0.00
2013-5-21,81.9,75.4,63.2,68.9,66.7,61.6,96,75,61,29.76,29.64,16,4,20,0.83
2013-5-22,74.6,68.4,61.5,69.0,64.5,59.3,96,88,73,29.71,29.62,10,2,15,0.37
2013-5-23,62.0,47.8,41.9,59.0,46.6,39.8,99,96,86,30.24,29.70,20,8,25,0.01
2013-5-24,52.2,45.1,34.8,43.1,38.3,34.0,98,78,53,30.44,30.23,15,5,22,0.00
2013-5-25,60.9,48.8,36.3,50.7,43.2,35.6,99,82,59,30.42,30.28,9,2,12,0.00
2013-5-26,72.7,57.0,39.8,53.8,44.6,39.3,99,68,37,30.34,30.16,8,2,13,0.00
2013-5-27,59.4,59.0,58.6,54.2,53.9,53.5,84,83,82,30.17,30.14,2,0,3,0.00
2013-5-29,84.4,72.9,61.7,72.1,66.4,61.4,99,81,60,29.96,29.80,5,3,19,0.10
2013-5-30,85.1,76.3,67.9,72.1,68.1,63.4,89,76,61,29.95,29.84,7,4,24,0.08
2013-5-31,76.9,71.8,65.7,69.0,66.8,64.0,95,85,76,29.89,29.72,7,4,20,0.36